contact: severine.martini@mio.osupytheas.fr, dominique.lefevre@mio.osupytheas.fr
Project:EMSO Ligure-ouest http://www.emso-fr.org/EMSO-France
Sensor Optode, line 4330 Serial 272 
DOI : "https://doi.org/10.17882/97948" 
Title:EMSO Ligure Ouest : Data BathyDock capteur Optode - deploiement "2023-04-28"
Datetime,Profondeur,Latitude,Longitude,optode_type,serial,O2_concentration,O2_saturation,Temperature,Calibrated_Phase,Temp_Compensated_Phase,phase_blue_light,phase_red_light,Amplitude_blue_light,Amplitude_red_light,thermistor_bridge
time,m,degree_north,degree_east,1,1,umol.l-1,%,degree_C,degree,degree,degree,degree,mV,mV,mV
2023-11-30T00:00:07,2420,42.8014,5.9826,4330,272,186.755,57.190,13.304,36.023,36.604,41.194,4.591,295.5,544.9,291.4
2023-11-30T00:03:08,2420,42.8014,5.9826,4330,272,186.634,57.156,13.306,36.030,36.610,41.197,4.587,295.5,544.9,291.4
2023-11-30T00:06:08,2420,42.8014,5.9826,4330,272,186.817,57.209,13.304,36.019,36.599,41.194,4.595,295.6,544.9,291.4
2023-11-30T00:09:07,2420,42.8014,5.9826,4330,272,186.571,57.135,13.305,36.035,36.615,41.205,4.590,295.6,544.9,291.4
2023-11-30T00:12:07,2420,42.8014,5.9826,4330,272,186.767,57.195,13.304,36.022,36.603,41.190,4.587,295.6,544.9,291.4
2023-11-30T00:15:07,2420,42.8014,5.9826,4330,272,186.854,57.220,13.303,36.018,36.598,41.191,4.593,295.5,544.9,291.4
2023-11-30T00:18:07,2420,42.8014,5.9826,4330,272,186.562,57.136,13.308,36.034,36.614,41.205,4.591,295.6,544.9,291.3
2023-11-30T00:21:07,2420,42.8014,5.9826,4330,272,186.723,57.181,13.304,36.025,36.605,41.196,4.590,295.5,544.9,291.4
2023-11-30T00:24:08,2420,42.8014,5.9826,4330,272,186.644,57.156,13.304,36.031,36.611,41.200,4.589,295.6,544.9,291.4
2023-11-30T00:27:08,2420,42.8014,5.9826,4330,272,186.806,57.205,13.303,36.020,36.601,41.188,4.587,295.6,544.9,291.4
2023-11-30T00:30:08,2420,42.8014,5.9826,4330,272,186.522,57.120,13.305,36.038,36.618,41.205,4.587,295.5,544.9,291.4
2023-11-30T00:33:07,2420,42.8014,5.9826,4330,272,186.779,57.201,13.307,36.021,36.601,41.194,4.592,295.5,544.9,291.3
2023-11-30T00:36:07,2420,42.8014,5.9826,4330,272,186.756,57.192,13.305,36.023,36.604,41.193,4.590,295.5,544.9,291.4
2023-11-30T00:39:07,2420,42.8014,5.9826,4330,272,186.999,57.267,13.306,36.007,36.587,41.175,4.587,295.5,544.8,291.4
2023-11-30T00:42:07,2420,42.8014,5.9826,4330,272,186.774,57.195,13.303,36.022,36.603,41.191,4.588,295.5,544.9,291.5
2023-11-30T00:45:08,2420,42.8014,5.9826,4330,272,186.806,57.205,13.303,36.021,36.601,41.192,4.591,295.6,544.9,291.4
2023-11-30T00:48:08,2420,42.8014,5.9826,4330,272,186.489,57.110,13.305,36.040,36.620,41.207,4.587,295.5,544.9,291.4
2023-11-30T00:51:08,2420,42.8014,5.9826,4330,272,186.559,57.131,13.304,36.036,36.616,41.204,4.588,295.5,544.9,291.4
2023-11-30T00:54:08,2420,42.8014,5.9826,4330,272,186.830,57.216,13.306,36.018,36.598,41.182,4.584,295.5,544.9,291.4
2023-11-30T00:57:08,2420,42.8014,5.9826,4330,272,186.730,57.187,13.308,36.023,36.603,41.194,4.591,295.6,544.9,291.3
2023-11-30T01:00:07,2420,42.8014,5.9826,4330,272,186.643,57.156,13.304,36.031,36.611,41.202,4.591,295.4,544.9,291.4
2023-11-30T01:03:07,2420,42.8014,5.9826,4330,272,186.747,57.191,13.306,36.023,36.603,41.193,4.590,295.6,544.9,291.3
2023-11-30T01:06:07,2420,42.8014,5.9826,4330,272,186.864,57.228,13.307,36.015,36.595,41.190,4.595,295.5,544.9,291.3
2023-11-30T01:09:07,2420,42.8014,5.9826,4330,272,186.754,57.192,13.306,36.023,36.603,41.192,4.589,295.5,544.8,291.4
2023-11-30T01:12:07,2420,42.8014,5.9826,4330,272,186.733,57.190,13.309,36.022,36.602,41.196,4.593,295.5,544.9,291.3
2023-11-30T01:15:07,2420,42.8014,5.9826,4330,272,186.615,57.150,13.306,36.032,36.612,41.203,4.590,295.4,544.9,291.4
2023-11-30T01:18:08,2420,42.8014,5.9826,4330,272,186.761,57.195,13.306,36.022,36.602,41.197,4.595,295.5,544.8,291.4
2023-11-30T01:21:08,2420,42.8014,5.9826,4330,272,186.831,57.215,13.305,36.018,36.598,41.193,4.595,295.5,544.8,291.4
2023-11-30T01:24:08,2420,42.8014,5.9826,4330,272,186.680,57.168,13.304,36.028,36.609,41.200,4.591,295.5,544.9,291.4
2023-11-30T01:27:08,2420,42.8014,5.9826,4330,272,186.748,57.192,13.307,36.023,36.603,41.193,4.590,295.5,544.8,291.3
2023-11-30T01:30:08,2420,42.8014,5.9826,4330,272,186.677,57.173,13.309,36.026,36.606,41.195,4.589,295.5,544.9,291.3
2023-11-30T01:33:07,2420,42.8014,5.9826,4330,272,186.718,57.183,13.307,36.024,36.605,41.193,4.588,295.6,544.8,291.3
2023-11-30T01:36:07,2420,42.8014,5.9826,4330,272,186.746,57.192,13.307,36.022,36.603,41.195,4.592,295.5,544.8,291.3
2023-11-30T01:39:07,2420,42.8014,5.9826,4330,272,186.905,57.240,13.307,36.012,36.592,41.186,4.594,295.5,544.8,291.3
2023-11-30T01:42:07,2420,42.8014,5.9826,4330,272,186.828,57.218,13.308,36.016,36.597,41.186,4.589,295.5,544.8,291.3
2023-11-30T01:45:08,2420,42.8014,5.9826,4330,272,186.870,57.230,13.307,36.015,36.595,41.181,4.586,295.5,544.8,291.3
2023-11-30T01:48:08,2420,42.8014,5.9826,4330,272,186.691,57.172,13.305,36.027,36.607,41.198,4.591,295.5,544.9,291.4
2023-11-30T01:51:08,2420,42.8014,5.9826,4330,272,186.745,57.189,13.306,36.024,36.604,41.195,4.591,295.5,544.9,291.4
2023-11-30T01:54:08,2420,42.8014,5.9826,4330,272,186.789,57.203,13.306,36.021,36.601,41.190,4.590,295.5,544.9,291.4
2023-11-30T01:57:08,2420,42.8014,5.9826,4330,272,186.837,57.218,13.306,36.017,36.598,41.190,4.592,295.5,544.8,291.4
2023-11-30T02:00:07,2420,42.8014,5.9826,4330,272,186.782,57.199,13.304,36.022,36.602,41.191,4.589,295.5,544.9,291.4
2023-11-30T02:03:07,2420,42.8014,5.9826,4330,272,186.720,57.185,13.308,36.024,36.604,41.196,4.592,295.5,544.9,291.3
2023-11-30T02:06:07,2420,42.8014,5.9826,4330,272,186.837,57.219,13.307,36.017,36.597,41.192,4.595,295.5,544.8,291.3
2023-11-30T02:09:07,2420,42.8014,5.9826,4330,272,186.730,57.184,13.305,36.025,36.605,41.198,4.593,295.5,544.9,291.4
2023-11-30T02:12:08,2420,42.8014,5.9826,4330,272,187.052,57.284,13.306,36.003,36.584,41.175,4.591,295.5,544.8,291.4
2023-11-30T02:15:08,2420,42.8014,5.9826,4330,272,186.757,57.201,13.312,36.019,36.599,41.189,4.589,295.5,544.8,291.2
2023-11-30T02:18:08,2420,42.8014,5.9826,4330,272,186.823,57.214,13.307,36.018,36.598,41.190,4.592,295.5,544.9,291.3
2023-11-30T02:21:08,2420,42.8014,5.9826,4330,272,186.771,57.201,13.308,36.021,36.601,41.188,4.587,295.5,544.8,291.3
2023-11-30T02:24:08,2420,42.8014,5.9826,4330,272,187.017,57.272,13.306,36.006,36.586,41.177,4.591,295.5,544.8,291.4
2023-11-30T02:27:07,2420,42.8014,5.9826,4330,272,186.576,57.140,13.307,36.034,36.614,41.204,4.590,295.5,544.9,291.3
2023-11-30T02:30:07,2420,42.8014,5.9826,4330,272,186.686,57.172,13.306,36.027,36.607,41.197,4.590,295.5,544.8,291.4
2023-11-30T02:33:07,2420,42.8014,5.9826,4330,272,186.800,57.207,13.307,36.019,36.599,41.193,4.593,295.6,544.8,291.3
2023-11-30T02:36:07,2420,42.8014,5.9826,4330,272,186.707,57.181,13.308,36.025,36.605,41.197,4.592,295.6,544.7,291.3
2023-11-30T02:39:07,2420,42.8014,5.9826,4330,272,186.691,57.175,13.307,36.026,36.606,41.197,4.591,295.5,544.8,291.3
2023-11-30T02:42:07,2420,42.8014,5.9826,4330,272,186.645,57.162,13.308,36.029,36.609,41.194,4.585,295.6,544.8,291.3
2023-11-30T02:45:07,2420,42.8014,5.9826,4330,272,186.588,57.149,13.312,36.030,36.610,41.198,4.588,295.5,544.8,291.2
2023-11-30T02:48:08,2420,42.8014,5.9826,4330,272,186.930,57.250,13.309,36.009,36.590,41.176,4.587,295.5,544.8,291.3
2023-11-30T02:51:08,2420,42.8014,5.9826,4330,272,186.573,57.144,13.311,36.032,36.612,41.198,4.586,295.6,544.9,291.2
2023-11-30T02:54:08,2420,42.8014,5.9826,4330,272,186.642,57.169,13.314,36.025,36.606,41.198,4.593,295.5,544.9,291.1
2023-11-30T02:57:08,2420,42.8014,5.9826,4330,272,186.781,57.210,13.313,36.017,36.598,41.188,4.591,295.5,544.8,291.1
2023-11-30T03:00:08,2420,42.8014,5.9826,4330,272,186.879,57.236,13.310,36.013,36.593,41.185,4.593,295.4,544.8,291.2
2023-11-30T03:03:07,2420,42.8014,5.9826,4330,272,186.782,57.214,13.317,36.016,36.596,41.187,4.591,295.5,544.7,291.0
2023-11-30T03:06:07,2420,42.8014,5.9826,4330,272,186.623,57.161,13.313,36.028,36.608,41.194,4.586,295.5,544.8,291.1
2023-11-30T03:09:07,2420,42.8014,5.9826,4330,272,186.542,57.134,13.311,36.034,36.614,41.203,4.589,295.5,544.7,291.2
2023-11-30T03:12:07,2420,42.8014,5.9826,4330,272,186.752,57.199,13.311,36.020,36.600,41.191,4.591,295.5,544.8,291.2
2023-11-30T03:15:08,2420,42.8014,5.9826,4330,272,186.664,57.174,13.313,36.025,36.605,41.195,4.590,295.5,544.8,291.1
2023-11-30T03:18:08,2420,42.8014,5.9826,4330,272,186.583,57.154,13.317,36.029,36.609,41.198,4.589,295.6,544.7,291.0
2023-11-30T03:21:08,2420,42.8014,5.9826,4330,272,186.802,57.215,13.312,36.017,36.597,41.190,4.593,295.5,544.8,291.2
2023-11-30T03:24:08,2420,42.8014,5.9826,4330,272,186.867,57.237,13.314,36.011,36.592,41.186,4.594,295.5,544.7,291.1
2023-11-30T03:27:08,2420,42.8014,5.9826,4330,272,186.716,57.190,13.313,36.022,36.602,41.195,4.593,295.4,544.8,291.1
2023-11-30T03:30:07,2420,42.8014,5.9826,4330,272,186.784,57.210,13.313,36.017,36.597,41.191,4.594,295.5,544.7,291.1
2023-11-30T03:33:07,2420,42.8014,5.9826,4330,272,186.823,57.224,13.314,36.015,36.595,41.188,4.593,295.5,544.8,291.1
2023-11-30T03:36:07,2420,42.8014,5.9826,4330,272,186.403,57.097,13.316,36.041,36.621,41.208,4.588,295.6,544.8,291.0
2023-11-30T03:39:08,2420,42.8014,5.9826,4330,272,186.675,57.184,13.318,36.022,36.602,41.198,4.595,295.5,544.8,291.0
2023-11-30T03:42:08,2420,42.8014,5.9826,4330,272,186.458,57.112,13.314,36.038,36.618,41.212,4.594,295.5,544.8,291.1
2023-11-30T03:45:08,2420,42.8014,5.9826,4330,272,186.764,57.208,13.315,36.018,36.598,41.187,4.589,295.5,544.8,291.0
2023-11-30T03:48:08,2420,42.8014,5.9826,4330,272,186.546,57.141,13.316,36.031,36.611,41.202,4.590,295.5,544.8,291.0
2023-11-30T03:51:07,2420,42.8014,5.9826,4330,272,186.645,57.173,13.317,36.025,36.605,41.200,4.595,295.6,544.8,291.0
2023-11-30T03:54:07,2420,42.8014,5.9826,4330,272,186.513,57.129,13.314,36.034,36.614,41.200,4.586,295.5,544.8,291.1
2023-11-30T03:57:07,2420,42.8014,5.9826,4330,272,186.451,57.108,13.312,36.039,36.619,41.211,4.592,295.6,544.8,291.2
2023-11-30T04:00:07,2420,42.8014,5.9826,4330,272,186.597,57.159,13.317,36.027,36.607,41.193,4.586,295.5,544.8,291.0
2023-11-30T04:03:07,2420,42.8014,5.9826,4330,272,186.389,57.090,13.313,36.043,36.623,41.212,4.589,295.5,544.8,291.1
2023-11-30T04:06:07,2420,42.8014,5.9826,4330,272,186.660,57.175,13.315,36.024,36.604,41.194,4.590,295.6,544.8,291.1
2023-11-30T04:09:08,2420,42.8014,5.9826,4330,272,186.581,57.152,13.316,36.029,36.609,41.201,4.592,295.6,544.7,291.0
2023-11-30T04:12:08,2420,42.8014,5.9826,4330,272,186.557,57.142,13.314,36.032,36.612,41.204,4.592,295.6,544.8,291.1
2023-11-30T04:15:08,2420,42.8014,5.9826,4330,272,186.620,57.164,13.316,36.026,36.606,41.202,4.596,295.6,544.8,291.0
2023-11-30T04:18:08,2420,42.8014,5.9826,4330,272,186.611,57.163,13.317,36.027,36.607,41.199,4.592,295.5,544.8,291.0
2023-11-30T04:21:07,2420,42.8014,5.9826,4330,272,186.625,57.164,13.315,36.027,36.607,41.197,4.591,295.5,544.8,291.1
2023-11-30T04:24:07,2420,42.8014,5.9826,4330,272,186.563,57.146,13.316,36.030,36.610,41.201,4.591,295.6,544.8,291.0
2023-11-30T04:27:07,2420,42.8014,5.9826,4330,272,186.586,57.154,13.316,36.028,36.609,41.200,4.592,295.5,544.7,291.0
2023-11-30T04:30:07,2420,42.8014,5.9826,4330,272,186.644,57.169,13.314,36.025,36.606,41.197,4.591,295.6,544.8,291.1
2023-11-30T04:33:07,2420,42.8014,5.9826,4330,272,186.566,57.149,13.317,36.030,36.610,41.204,4.594,295.6,544.8,291.0
2023-11-30T04:36:07,2420,42.8014,5.9826,4330,272,186.724,57.198,13.317,36.019,36.600,41.194,4.594,295.6,544.8,291.0
2023-11-30T04:39:07,2420,42.8014,5.9826,4330,272,186.588,57.154,13.315,36.029,36.609,41.202,4.592,295.6,544.8,291.1
2023-11-30T04:42:07,2420,42.8014,5.9826,4330,272,186.472,57.125,13.321,36.034,36.614,41.211,4.597,295.6,544.8,290.9
2023-11-30T04:45:08,2420,42.8014,5.9826,4330,272,186.686,57.182,13.314,36.024,36.604,41.196,4.592,295.6,544.8,291.1
2023-11-30T04:48:08,2420,42.8014,5.9826,4330,272,186.766,57.206,13.314,36.018,36.598,41.188,4.590,295.5,544.7,291.1
2023-11-30T04:51:08,2420,42.8014,5.9826,4330,272,186.324,57.075,13.317,36.045,36.625,41.215,4.590,295.5,544.8,291.0
2023-11-30T04:54:07,2420,42.8014,5.9826,4330,272,186.799,57.220,13.317,36.015,36.595,41.184,4.589,295.6,544.8,291.0
2023-11-30T04:57:07,2420,42.8014,5.9826,4330,272,186.553,57.143,13.315,36.031,36.611,41.206,4.594,295.5,544.8,291.1
2023-11-30T05:00:07,2420,42.8014,5.9826,4330,272,186.565,57.150,13.318,36.029,36.609,41.201,4.593,295.6,544.8,291.0
2023-11-30T05:03:08,2420,42.8014,5.9826,4330,272,186.483,57.124,13.317,36.034,36.614,41.205,4.591,295.6,544.7,291.0
2023-11-30T05:06:07,2420,42.8014,5.9826,4330,272,186.614,57.160,13.314,36.028,36.608,41.202,4.594,295.6,544.7,291.1
2023-11-30T05:09:07,2420,42.8014,5.9826,4330,272,186.688,57.186,13.317,36.022,36.602,41.191,4.589,295.6,544.8,291.0
2023-11-30T05:12:07,2420,42.8014,5.9826,4330,272,186.707,57.194,13.319,36.020,36.600,41.196,4.597,295.6,544.7,290.9
2023-11-30T05:15:07,2420,42.8014,5.9826,4330,272,186.463,57.122,13.321,36.035,36.615,41.209,4.594,295.6,544.9,290.9
2023-11-30T05:18:07,2420,42.8014,5.9826,4330,272,186.517,57.135,13.318,36.033,36.613,41.208,4.595,295.5,544.7,291.0
2023-11-30T05:21:07,2420,42.8014,5.9826,4330,272,186.655,57.179,13.320,36.022,36.602,41.190,4.588,295.6,544.7,290.9
2023-11-30T05:24:07,2420,42.8014,5.9826,4330,272,186.551,57.142,13.315,36.032,36.612,41.202,4.590,295.6,544.8,291.1
2023-11-30T05:27:08,2420,42.8014,5.9826,4330,272,186.727,57.197,13.316,36.020,36.600,41.189,4.589,295.6,544.8,291.0
2023-11-30T05:30:08,2420,42.8014,5.9826,4330,272,186.583,57.153,13.316,36.029,36.609,41.196,4.587,295.6,544.8,291.0
2023-11-30T05:33:07,2420,42.8014,5.9826,4330,272,186.476,57.124,13.319,36.034,36.614,41.201,4.587,295.6,544.8,290.9
2023-11-30T05:36:07,2420,42.8014,5.9826,4330,272,186.587,57.156,13.317,36.028,36.608,41.196,4.588,295.6,544.8,291.0
2023-11-30T05:39:07,2420,42.8014,5.9826,4330,272,186.636,57.165,13.313,36.027,36.607,41.198,4.591,295.6,544.9,291.1
2023-11-30T05:42:07,2420,42.8014,5.9826,4330,272,186.425,57.108,13.318,36.038,36.618,41.212,4.594,295.5,544.7,291.0
2023-11-30T05:45:07,2420,42.8014,5.9826,4330,272,186.493,57.128,13.318,36.034,36.614,41.203,4.589,295.6,544.8,291.0
2023-11-30T05:48:08,2420,42.8014,5.9826,4330,272,186.568,57.153,13.320,36.028,36.608,41.199,4.591,295.5,544.8,290.9
2023-11-30T05:51:08,2420,42.8014,5.9826,4330,272,186.565,57.153,13.321,36.028,36.608,41.202,4.594,295.5,544.8,290.9
2023-11-30T05:54:08,2420,42.8014,5.9826,4330,272,186.457,57.124,13.324,36.033,36.613,41.201,4.588,295.6,544.8,290.8
2023-11-30T05:57:08,2420,42.8014,5.9826,4330,272,186.620,57.168,13.319,36.025,36.605,41.198,4.593,295.6,544.8,290.9
2023-11-30T06:00:07,2420,42.8014,5.9826,4330,272,186.683,57.191,13.322,36.020,36.600,41.192,4.592,295.6,544.7,290.8
2023-11-30T06:03:07,2420,42.8014,5.9826,4330,272,186.435,57.116,13.323,36.035,36.615,41.206,4.591,295.6,544.8,290.8
2023-11-30T06:06:07,2420,42.8014,5.9826,4330,272,186.479,57.121,13.316,36.036,36.616,41.209,4.593,295.6,544.8,291.0
2023-11-30T06:09:07,2420,42.8014,5.9826,4330,272,186.736,57.197,13.314,36.020,36.600,41.198,4.598,295.6,544.8,291.1
2023-11-30T06:12:07,2420,42.8014,5.9826,4330,272,186.384,57.098,13.321,36.039,36.619,41.209,4.589,295.6,544.8,290.9
2023-11-30T06:15:08,2420,42.8014,5.9826,4330,272,186.517,57.137,13.319,36.032,36.612,41.203,4.591,295.6,544.8,290.9
2023-11-30T06:18:08,2420,42.8014,5.9826,4330,272,186.531,57.136,13.315,36.033,36.613,41.202,4.589,295.6,544.8,291.0
2023-11-30T06:21:08,2420,42.8014,5.9826,4330,272,186.469,57.119,13.316,36.036,36.616,41.207,4.591,295.6,544.8,291.0
2023-11-30T06:24:07,2420,42.8014,5.9826,4330,272,186.707,57.190,13.315,36.021,36.601,41.198,4.597,295.6,544.8,291.0
2023-11-30T06:27:08,2420,42.8014,5.9826,4330,272,186.672,57.179,13.315,36.024,36.604,41.195,4.591,295.6,544.8,291.1
2023-11-30T06:30:08,2420,42.8014,5.9826,4330,272,186.577,57.151,13.316,36.029,36.609,41.200,4.590,295.6,544.8,291.0
2023-11-30T06:33:07,2420,42.8014,5.9826,4330,272,186.606,57.155,13.312,36.029,36.610,41.202,4.593,295.6,544.8,291.2
2023-11-30T06:36:07,2420,42.8014,5.9826,4330,272,186.529,57.133,13.313,36.033,36.614,41.201,4.587,295.6,544.8,291.1
2023-11-30T06:39:07,2420,42.8014,5.9826,4330,272,186.459,57.109,13.311,36.039,36.619,41.213,4.594,295.6,544.8,291.2
2023-11-30T06:42:07,2420,42.8014,5.9826,4330,272,186.598,57.155,13.314,36.028,36.609,41.199,4.590,295.6,544.8,291.1
2023-11-30T06:45:07,2420,42.8014,5.9826,4330,272,186.627,57.165,13.315,36.027,36.607,41.195,4.588,295.5,544.8,291.1
2023-11-30T06:48:07,2420,42.8014,5.9826,4330,272,186.599,57.157,13.315,36.028,36.608,41.202,4.594,295.6,544.8,291.1
2023-11-30T06:51:08,2420,42.8014,5.9826,4330,272,186.501,57.123,13.312,36.036,36.616,41.206,4.590,295.6,544.8,291.1
2023-11-30T06:54:08,2420,42.8014,5.9826,4330,272,186.885,57.239,13.311,36.012,36.592,41.186,4.595,295.5,544.8,291.2
2023-11-30T06:57:07,2420,42.8014,5.9826,4330,272,186.433,57.100,13.310,36.041,36.621,41.211,4.590,295.5,544.9,291.2
2023-11-30T07:00:07,2420,42.8014,5.9826,4330,272,186.650,57.175,13.317,36.024,36.604,41.192,4.588,295.5,544.8,291.0
2023-11-30T07:03:07,2420,42.8014,5.9826,4330,272,186.342,57.081,13.318,36.044,36.624,41.214,4.590,295.7,544.7,291.0
2023-11-30T07:06:07,2420,42.8014,5.9826,4330,272,186.691,57.179,13.310,36.025,36.605,41.197,4.592,295.6,544.7,291.2
2023-11-30T07:09:07,2420,42.8014,5.9826,4330,272,186.594,57.150,13.311,36.031,36.611,41.195,4.584,295.5,544.9,291.2
2023-11-30T07:12:07,2420,42.8014,5.9826,4330,272,186.738,57.192,13.309,36.022,36.602,41.198,4.596,295.6,544.8,291.3
2023-11-30T07:15:07,2420,42.8014,5.9826,4330,272,186.471,57.112,13.311,36.039,36.619,41.207,4.588,295.6,544.8,291.2
2023-11-30T07:18:07,2420,42.8014,5.9826,4330,272,186.603,57.154,13.312,36.029,36.609,41.197,4.588,295.5,544.8,291.2
2023-11-30T07:21:07,2420,42.8014,5.9826,4330,272,186.603,57.154,13.312,36.030,36.610,41.203,4.594,295.6,544.7,291.2
2023-11-30T07:24:07,2420,42.8014,5.9826,4330,272,186.517,57.127,13.312,36.035,36.616,41.209,4.594,295.5,544.7,291.2
2023-11-30T07:27:08,2420,42.8014,5.9826,4330,272,186.716,57.189,13.312,36.022,36.602,41.193,4.591,295.5,544.8,291.1
2023-11-30T07:30:08,2420,42.8014,5.9826,4330,272,186.279,57.060,13.316,36.049,36.629,41.215,4.586,295.5,544.8,291.0
2023-11-30T07:33:07,2420,42.8014,5.9826,4330,272,186.199,57.033,13.315,36.054,36.634,41.226,4.591,295.6,544.8,291.1
2023-11-30T07:36:07,2420,42.8014,5.9826,4330,272,186.512,57.124,13.310,36.036,36.617,41.206,4.590,295.6,544.9,291.2
2023-11-30T07:39:07,2420,42.8014,5.9826,4330,272,186.353,57.074,13.310,36.047,36.627,41.215,4.588,295.6,544.8,291.2
2023-11-30T07:42:07,2420,42.8014,5.9826,4330,272,186.671,57.172,13.310,36.026,36.606,41.196,4.590,295.6,544.9,291.2
2023-11-30T07:45:07,2420,42.8014,5.9826,4330,272,186.871,57.236,13.312,36.012,36.592,41.185,4.592,295.5,544.8,291.2
2023-11-30T07:48:08,2420,42.8014,5.9826,4330,272,186.507,57.124,13.312,36.036,36.616,41.208,4.592,295.6,544.9,291.2
2023-11-30T07:51:08,2420,42.8014,5.9826,4330,272,186.479,57.115,13.312,36.038,36.618,41.208,4.590,295.5,544.8,291.2
2023-11-30T07:54:08,2420,42.8014,5.9826,4330,272,186.570,57.143,13.311,36.032,36.612,41.199,4.587,295.6,544.9,291.2
2023-11-30T07:57:08,2420,42.8014,5.9826,4330,272,186.552,57.137,13.311,36.033,36.613,41.208,4.595,295.6,544.9,291.2
2023-11-30T08:00:08,2420,42.8014,5.9826,4330,272,186.579,57.148,13.313,36.030,36.610,41.197,4.586,295.6,544.8,291.1
2023-11-30T08:03:07,2420,42.8014,5.9826,4330,272,186.358,57.078,13.311,36.046,36.626,41.216,4.590,295.6,544.9,291.2
2023-11-30T08:06:07,2420,42.8014,5.9826,4330,272,186.597,57.150,13.311,36.031,36.611,41.200,4.589,295.6,544.7,291.2
2023-11-30T08:09:07,2420,42.8014,5.9826,4330,272,186.689,57.179,13.311,36.024,36.604,41.196,4.591,295.6,544.8,291.2
2023-11-30T08:12:08,2420,42.8014,5.9826,4330,272,186.583,57.152,13.315,36.029,36.609,41.194,4.585,295.6,544.8,291.1
2023-11-30T08:15:08,2420,42.8014,5.9826,4330,272,186.801,57.212,13.310,36.017,36.597,41.185,4.587,295.6,544.8,291.2
2023-11-30T08:18:08,2420,42.8014,5.9826,4330,272,186.589,57.146,13.309,36.032,36.612,41.202,4.590,295.6,544.8,291.2
2023-11-30T08:21:08,2420,42.8014,5.9826,4330,272,186.664,57.168,13.308,36.027,36.607,41.199,4.591,295.6,544.8,291.3
2023-11-30T08:24:07,2420,42.8014,5.9826,4330,272,186.440,57.102,13.310,36.041,36.621,41.213,4.592,295.7,544.8,291.2
2023-11-30T08:27:07,2420,42.8014,5.9826,4330,272,186.479,57.113,13.309,36.039,36.619,41.207,4.588,295.6,544.9,291.2
2023-11-30T08:30:08,2420,42.8014,5.9826,4330,272,186.649,57.165,13.309,36.028,36.608,41.201,4.593,295.6,544.8,291.2
2023-11-30T08:33:07,2420,42.8014,5.9826,4330,272,186.629,57.162,13.312,36.028,36.608,41.205,4.597,295.6,544.8,291.1
2023-11-30T08:36:07,2420,42.8014,5.9826,4330,272,186.630,57.159,13.309,36.029,36.609,41.201,4.592,295.6,544.9,291.3
2023-11-30T08:39:07,2420,42.8014,5.9826,4330,272,186.462,57.111,13.312,36.038,36.618,41.204,4.585,295.6,544.8,291.2
2023-11-30T08:42:08,2420,42.8014,5.9826,4330,272,186.545,57.132,13.309,36.035,36.615,41.205,4.589,295.6,544.8,291.3
2023-11-30T08:45:07,2420,42.8014,5.9826,4330,272,186.464,57.109,13.310,36.040,36.620,41.208,4.588,295.6,544.8,291.2
2023-11-30T08:48:07,2420,42.8014,5.9826,4330,272,186.939,57.257,13.312,36.008,36.588,41.185,4.597,295.6,544.9,291.2
2023-11-30T08:51:07,2420,42.8014,5.9826,4330,272,186.776,57.203,13.309,36.020,36.600,41.190,4.590,295.6,544.8,291.3
2023-11-30T08:54:07,2420,42.8014,5.9826,4330,272,186.707,57.185,13.311,36.023,36.603,41.191,4.587,295.6,544.8,291.2
2023-11-30T08:57:07,2420,42.8014,5.9826,4330,272,186.610,57.152,13.309,36.031,36.611,41.202,4.591,295.6,544.8,291.3
2023-11-30T09:00:08,2420,42.8014,5.9826,4330,272,186.669,57.170,13.309,36.027,36.607,41.198,4.591,295.6,544.9,291.3
2023-11-30T09:03:07,2420,42.8014,5.9826,4330,272,186.741,57.193,13.309,36.022,36.602,41.193,4.591,295.6,544.8,291.2
2023-11-30T09:06:08,2420,42.8014,5.9826,4330,272,186.409,57.090,13.309,36.044,36.624,41.215,4.592,295.6,544.9,291.3
2023-11-30T09:09:08,2420,42.8014,5.9826,4330,272,186.573,57.144,13.311,36.031,36.611,41.203,4.592,295.6,544.8,291.2
2023-11-30T09:12:08,2420,42.8014,5.9826,4330,272,186.502,57.117,13.307,36.038,36.618,41.207,4.588,295.6,544.9,291.3
2023-11-30T09:15:08,2420,42.8014,5.9826,4330,272,186.610,57.152,13.309,36.030,36.610,41.199,4.589,295.5,544.8,291.3
2023-11-30T09:18:07,2420,42.8014,5.9826,4330,272,186.816,57.215,13.309,36.017,36.597,41.193,4.596,295.5,544.8,291.3
2023-11-30T09:21:07,2420,42.8014,5.9826,4330,272,186.631,57.166,13.315,36.027,36.607,41.193,4.586,295.5,544.8,291.1
2023-11-30T09:24:07,2420,42.8014,5.9826,4330,272,186.284,57.053,13.310,36.052,36.632,41.219,4.587,295.6,544.8,291.2
2023-11-30T09:27:07,2420,42.8014,5.9826,4330,272,186.960,57.260,13.310,36.008,36.588,41.182,4.594,295.6,544.8,291.2
2023-11-30T09:30:08,2420,42.8014,5.9826,4330,272,186.665,57.171,13.310,36.027,36.607,41.197,4.590,295.6,544.9,291.2
2023-11-30T09:33:07,2420,42.8014,5.9826,4330,272,186.389,57.091,13.314,36.042,36.622,41.210,4.588,295.5,544.8,291.1
2023-11-30T09:36:08,2420,42.8014,5.9826,4330,272,186.693,57.179,13.310,36.025,36.605,41.196,4.591,295.5,544.8,291.2
2023-11-30T09:39:07,2420,42.8014,5.9826,4330,272,186.633,57.162,13.311,36.027,36.608,41.198,4.590,295.5,544.8,291.2
2023-11-30T09:42:07,2420,42.8014,5.9826,4330,272,186.661,57.176,13.316,36.024,36.604,41.193,4.589,295.6,544.8,291.0
2023-11-30T09:45:07,2420,42.8014,5.9826,4330,272,186.504,57.121,13.310,36.036,36.617,41.206,4.589,295.5,544.8,291.2
2023-11-30T09:48:07,2420,42.8014,5.9826,4330,272,186.726,57.189,13.310,36.022,36.602,41.193,4.591,295.5,544.8,291.2
2023-11-30T09:51:08,2420,42.8014,5.9826,4330,272,186.707,57.186,13.312,36.023,36.603,41.192,4.589,295.7,544.7,291.2
2023-11-30T09:54:08,2420,42.8014,5.9826,4330,272,186.766,57.203,13.311,36.019,36.600,41.190,4.591,295.5,544.8,291.2
2023-11-30T09:57:08,2420,42.8014,5.9826,4330,272,186.562,57.144,13.314,36.031,36.611,41.206,4.594,295.6,544.8,291.1
2023-11-30T10:00:08,2420,42.8014,5.9826,4330,272,186.369,57.082,13.312,36.045,36.625,41.210,4.585,295.6,544.8,291.2